STARLINK-30075, 57616

Orbit data source: Space-Track

STARLINK-30075, 57616 is a payload satellite owned by SpaceX/Seattle (US) in LEO that was launched on Fri, 11 Aug 2023 UTC via an FALCON 9 launch vehicle from the Air Force Eastern Test Range (AFETR). Payload-class satellites include a variety of spacecraft equipped with specific instruments for various scientific and technological missions. These include communications satellites like Starlink; space stations such as the ISS; scientific satellites like the Hubble; Earth observation satellites from companies like Planet Labs, Umbra, and HawkEye 360; GPS; miniature CubeSats for education and research; and military/defense satellites.

Loading next visibility...
Identifier
57616, 2023-119Q
Orbit
LEO
Country
Flag of USUS
Related business
Manufacturer
SpaceX/Seattle
Mission
Operational Commercial Communications
Bus & Motor
STARLINK V2M, Unknown motor
Mass
730 kg wet, ~700 kg dry
Launch date (UTC)
2023-08-11 (3 years ago)
Launch vehicle
FALCON 9
Launch site
Air Force Eastern Test Range (AFETR)
Object type
Payload
Rocket body
Debris
Shape & HBR
Box + 2 Pan, 17.7 m
Radar Cross Section
33.884 m², Large (>1 m²)

Expand to show TLE details & history
Last TLE update: 3 days ago

TLE from 3 days ago
0 STARLINK-30075
1 57616U 23119Q   26170.44834288  .00000784  00000-0  38038-4 0  9993
2 57616  43.0013 226.5135 0001519 277.5980  82.4700 15.27563317158652
Epoch: 2026-06-19T10:45Z
TLE epoch observation values (Epoch: 2026-06-19T10:45:36.824Z)
Latitude
0.00003°
Longitude
157.43293°
Altitude
482.738 km
Speed
7.626 km/s
True Right ascension
15h 06m 03s
True Declination
0° 00' 00"
Sunlit
Object was in full shadow at epoch
Visualization orbit readout
Latitude
Unknown
Longitude
Unknown
Altitude
Unknown
Speed
Unknown
Apparent Right ascension
Unknown
Apparent Declination
Unknown
Sunlit
N/A
Visualization observer readout
Local Sidereal Time
21:42:33
Azimuth
Unknown
Elevation
Unknown
Doppler factor
Unknown
Orbital elements
Apogee altitude
486.087 km
Perigee altitude
484.001 km
Semi-major axis
6,863.181 km
Eccentricity
0.00015
Inclination
43.0013°
RAAN
226.5135°
Arg. of periapsis
277.598°
True anomaly
82.48726°
Mean anomaly
82.47°
Eccentric anomaly
82.47863°
Mean motion
3.81729 °/min
Orbital period
94.31 mins
BSTAR
0.000038038
Loading maneuver chart data...
Computing Atmospheric mass density...
Loading historical data...
Loading historical data...
Loading historical data...
Loading historical data...
Loading historical data...
Loading historical data...
Loading historical data...

Documentation

Showing up to 5 results
|